Tracking 19242 objects as of 15-Aug-2018
HD Live streaming from Space Station
objects crossing your sky now

DSAT

Track DSAT now!
10-day predictions
DSAT is classified as:


NORAD ID: 42794
Int'l Code: 2017-036AF
Perigee: 512.6 km
Apogee: 691.9 km
Inclination: 97.6 °
Period: 96.6 minutes
Semi major axis: 6973 km
RCS: Unknown
Launch date: June 23, 2017
Source: Italy (IT)
Launch site: SRIHARIKOTA (SRI)
Uplink (MHz):
Downlink (MHz): 437.505
Beacon (MHz): 437.505
Mode: 4800bps GMSK CW
Call sign: U1-DSAT-U1
Status: Inactive

aabbcc
Your satellite tracking list
Your tracking list is empty




NASA's NSSDC Master Catalog

Two Line Element Set (TLE):
1 42794U 17036AF  18226.90447238 +.00000301 +00000-0 +31422-4 0  9999
2 42794 097.5865 279.3272 0128550 086.9536 274.6383 14.90907235062470
Source of the keplerian elements: AFSPC